Regional Weather Roundup
Issued by NWS

Home | Current Version | Previous Version | Graphics & Text | Print | Product List | Glossary On
Versions: 1 2 3 4 5 6 7 8 9 10 11 12 13 14 15 16 17 18 19 20 21 22 23 24 25 26 27
000
ASUS45 KBOU 170506
RWRCO

WEATHER ROUNDUP FOR COLORADO
NATIONAL WEATHER SERVICE DENVER/BOULDER CO
1100 PM MDT WED APR 16 2014

NOTE: "FAIR" INDICATES FEW OR NO CLOUDS BELOW 12000 FEET WITH NO
SIGNIFICANT WEATHER AND/OR OBSTRUCTIONS TO VISIBILITY.

COZ001>005-013-030-031-170600-
...NORTHWEST COLORADO...

CITY           SKY/WX    TMP DP  RH WIND       PRES   REMARKS
CRAIG          PTCLDY    28  21  75 CALM      30.01R
HAYDEN         CLEAR     34  16  47 E6        30.03S WCI  29
MEEKER         CLOUDY    37  21  52 NE3       30.02R
MOUNT WERNER   NOT AVBL
STEAMBOAT SPGS MOCLDY    33  16  49 E5        30.02S WCI  29
WALDEN         PTCLDY    28  19  69 SE6       30.03S WCI  22
$$

COZ006>008-011-170600-
...WEST CENTRAL VALLEYS...

CITY           SKY/WX    TMP DP  RH WIND       PRES   REMARKS
GRAND JUNCTION CLEAR     43  21  41 E6        29.96R
MONTROSE       CLEAR     40  26  57 SE9       30.02R
EAGLE          CLOUDY    41  18  38 CALM      30.04R
RIFLE          CLEAR     37  23  56 SE5       29.99R
DELTA          CLEAR     42  22  45 NE5       29.99R
NUCLA            N/A     41  25  52 E10       30.04S
$$

COZ017>023-064>068-170600-
...SOUTHWEST COLORADO...

CITY           SKY/WX    TMP DP  RH WIND       PRES   REMARKS
DURANGO        CLEAR     40  21  46 CALM      29.98R
CORTEZ         CLEAR     36  23  59 NE3       30.00R
PAGOSA SPRINGS CLEAR     39  25  57 NE5       30.00S
TELLURIDE      PTCLDY    34  27  75 CALM      30.07S
WOLF CREEK PAS SNOW      21  21 100 NE12      30.10S VSB 1/4 WCI   9
$$

COZ009-010-012-014-032>034-037-058>063-170600-
...CENTRAL COLORADO...

CITY           SKY/WX    TMP DP  RH WIND       PRES   REMARKS
ASPEN          PTCLDY    33  22  63 S8        30.03R WCI  26
BUENA VISTA    LGT SNOW  32  30  94 S6        30.10S WCI  26
COPPER MTN     CLOUDY    27  10  50 CALM      30.10S
BERTHOUD PASS  CLOUDY    14   5  67 W9        30.11S WCI   2
COTTONWOOD PAS LGT SNOW  30  28  93 SE7       30.11R VSB 3/4 WCI  23
GUNNISON       PTCLDY    36  19  51 NW6       30.07R
KREMMLING      CLOUDY    32  18  55 CALM      30.06S
LEADVILLE      MOCLDY    25  21  85 S8        30.07R WCI  16
MONARCH PASS   FOG       19  18  93 E21       30.19S VSB<1/4 WCI   3
SALIDA         CLOUDY    33  32  96 E6        30.19R WCI  27
SUNLIGHT       PTCLDY    30  10  43 CALM      30.11S
WILKERSON PASS LGT SNOW  21  19  93 NE5       30.14S WCI  15
$$

COZ069>075-170600-
...SAN LUIS VALLEY/SANGRE DE CRISTO MOUNTAINS...

CITY           SKY/WX    TMP DP  RH WIND       PRES   REMARKS
ALAMOSA        LGT SNOW  32  32 100 SE7       30.05R FOG     WCI  26
LA VETA PASS     N/A    N/A N/A N/A MISG      30.08R
SAGUACHE       CLOUDY    34  32  93 SE7       30.06R WCI  28
$$

COZ035-036-038>040-170600-
...NORTHERN COLORADO FRONT RANGE...

CITY           SKY/WX    TMP DP  RH WIND       PRES   REMARKS
DENVER INTL AP CLOUDY    41  29  62 S14       30.08S
DMNS CITY PARK   N/A     43  29  58 S10G16    30.10R
AURORA         MOCLDY    39  32  75 S10       30.10S
FRONT RANGE AP NOT AVBL
ERIE MUNI ARPT CLOUDY    44  28  51 SE5       30.08S
BOULDER MUN AP CLOUDY    43  30  61 W3        30.08S
CENTENNIAL     CLOUDY    37  30  75 S9        30.09F
BROOMFIELD     NOT AVBL
FORT COLLINS   CLOUDY    43  27  52 E6        30.10S
LONGMONT       CLOUDY    45  33  62 CALM      30.11S
$$

COZ041-046-047-076>085-087-088-170600-
...PIKES PEAK/PALMER DIVIDE AND SOUTHERN FOOTHILLS...

CITY           SKY/WX    TMP DP  RH WIND       PRES   REMARKS
COLO. SPRINGS  LGT SNOW  34  32  92 CALM      30.13S FOG
A. F. ACADEMY  LGT SNOW  32  32 100 CALM      30.12S FOG
ELLICOTT       NOT AVBL
FALCON         CLOUDY    32  32  99 CALM      30.13S
FORT CARSON    LGT RAIN  34  34  99 NW5       30.12S WCI  30
LIMON          CLOUDY    36  30  79 SE8       30.11S
MONUMENT HILL  CLOUDY    30  30 100 S7        30.10S WCI  23
TRINIDAD       LGT RAIN  37  35  92 NE9       30.11R
$$

COZ042>045-048>051-090-091-170600-
...NORTHEAST COLORADO...

CITY           SKY/WX    TMP DP  RH WIND       PRES   REMARKS
GREELEY ARPT   CLOUDY    45  25  45 SE13      30.10S
AKRON          MOCLDY    34  31  88 E8        30.11R WCI  27
BURLINGTON     CLOUDY    41  32  70 E7        30.12R
WRAY           MOCLDY    36  33  88 NE6       30.14R
STERLING       CLOUDY    41  34  75 E5        30.12R
HOLYOKE        MOCLDY    34  32  93 NE7       30.15R WCI  28
FORT MORGAN    MOCLDY    40  31  68 E8        30.12R
$$

COZ086-089-092>099-170600-
...SOUTHEAST COLORADO...

CITY           SKY/WX    TMP DP  RH WIND       PRES   REMARKS
PUEBLO         LGT RAIN  40  37  89 N6        30.13R
LA JUNTA       CLOUDY    47  32  56 N15       30.09R
LAMAR          CLOUDY    49  30  48 NE12      30.08R
SPRINGFIELD      N/A     45  30  55 NE20      30.08R
$$



USA.gov is the U.S. government's official web portal to all federal, state and local government web resources and services.